VLG1RM LEMG-LEPA

Flight info

Callsign VLG1RM
Flight time N/A
Altitude 36000
Route RIXUR N851 RUXET
Aircraft A320/M-SDE3FGHIRWY/LB1

Departure

Time N/A
Airport Málaga-Costa del Sol Airport (LEMG)

Arrival

Time 2026-05-07 18:35
Airport Palma de Mallorca Airport (LEPA)
Time Latitude Longitude Altitude Speed Heading
2026-05-07 17:23 37.13856 -3.56218 26308 ft 472 kts 63°
2026-05-07 17:23 37.15304 -3.52510 26695 ft 475 kts 63°
2026-05-07 17:23 37.16769 -3.48784 27097 ft 478 kts 63°
2026-05-07 17:24 37.18248 -3.45037 27501 ft 481 kts 63°
2026-05-07 17:24 37.19740 -3.41263 27898 ft 485 kts 63°
2026-05-07 17:24 37.21242 -3.37455 28290 ft 488 kts 63°
2026-05-07 17:24 37.22750 -3.33639 28687 ft 491 kts 63°
2026-05-07 17:25 37.24255 -3.29826 29089 ft 494 kts 63°
2026-05-07 17:25 37.25784 -3.25947 29454 ft 497 kts 63°
2026-05-07 17:25 37.27314 -3.22045 29833 ft 500 kts 63°
2026-05-07 17:25 37.28850 -3.18117 30183 ft 503 kts 63°
2026-05-07 17:26 37.30394 -3.14169 30486 ft 505 kts 63°
2026-05-07 17:26 37.31924 -3.10252 30791 ft 508 kts 63°
2026-05-07 17:26 37.33474 -3.06270 31110 ft 511 kts 63°
2026-05-07 17:26 37.35066 -3.02177 31506 ft 512 kts 63°
2026-05-07 17:27 37.36605 -2.98217 31981 ft 511 kts 63°
2026-05-07 17:27 37.38188 -2.94140 32445 ft 511 kts 63°
2026-05-07 17:27 37.39726 -2.90176 32882 ft 511 kts 62°
2026-05-07 17:27 37.41301 -2.86107 33340 ft 511 kts 62°
2026-05-07 17:28 37.42810 -2.82207 33759 ft 511 kts 62°
2026-05-07 17:28 37.44361 -2.78193 34164 ft 511 kts 62°
2026-05-07 17:28 37.45919 -2.74164 34541 ft 511 kts 62°
2026-05-07 17:28 37.47471 -2.70145 34935 ft 510 kts 62°
2026-05-07 17:29 37.49017 -2.66137 35324 ft 509 kts 62°
2026-05-07 17:29 37.50563 -2.62117 35727 ft 509 kts 62°
2026-05-07 17:29 37.52105 -2.58106 35912 ft 509 kts 62°
2026-05-07 17:29 37.53643 -2.54098 35957 ft 508 kts 62°
2026-05-07 17:30 37.56708 -2.46086 35956 ft 507 kts 62°
2026-05-07 17:30 37.59767 -2.38076 35960 ft 507 kts 62°
2026-05-07 17:31 37.62813 -2.30059 35959 ft 507 kts 62°
2026-05-07 17:31 37.65862 -2.22041 35959 ft 508 kts 62°
2026-05-07 17:32 37.68921 -2.13993 35960 ft 507 kts 62°
2026-05-07 17:32 37.71949 -2.06000 35963 ft 508 kts 62°
2026-05-07 17:33 37.74985 -1.97934 35959 ft 508 kts 62°
2026-05-07 17:33 37.77546 -1.91113 35961 ft 508 kts 62°
2026-05-07 17:34 37.80581 -1.83036 35964 ft 509 kts 62°
2026-05-07 17:34 37.83613 -1.74940 35957 ft 509 kts 62°
2026-05-07 17:35 37.86638 -1.66833 35961 ft 509 kts 62°
2026-05-07 17:35 37.89656 -1.58722 35960 ft 510 kts 62°
2026-05-07 17:36 37.92676 -1.50600 35951 ft 509 kts 62°
2026-05-07 17:36 37.95690 -1.42484 35949 ft 510 kts 62°
2026-05-07 17:37 37.98698 -1.34334 35950 ft 510 kts 62°
2026-05-07 17:37 38.01675 -1.26240 35947 ft 510 kts 62°
2026-05-07 17:38 38.04668 -1.18079 35954 ft 510 kts 62°
2026-05-07 17:38 38.07606 -1.10058 35955 ft 510 kts 62°
2026-05-07 17:39 38.10396 -1.02422 35961 ft 509 kts 61°
2026-05-07 17:39 38.13370 -0.94269 35959 ft 509 kts 61°
2026-05-07 17:40 38.16180 -0.86525 35971 ft 508 kts 62°
2026-05-07 17:40 38.19128 -0.78377 35981 ft 507 kts 62°
2026-05-07 17:41 38.22070 -0.70236 35991 ft 507 kts 62°
2026-05-07 17:41 38.25008 -0.62092 35999 ft 506 kts 62°
2026-05-07 17:42 38.27905 -0.53939 36001 ft 507 kts 63°
2026-05-07 17:42 38.30594 -0.45632 35994 ft 507 kts 65°
2026-05-07 17:43 38.33171 -0.37263 35981 ft 507 kts 65°
2026-05-07 17:43 38.35772 -0.28918 35970 ft 507 kts 65°
2026-05-07 17:44 38.38466 -0.20637 35965 ft 505 kts 64°
2026-05-07 17:44 38.41254 -0.12416 35958 ft 505 kts 63°
2026-05-07 17:45 38.44026 -0.04206 35963 ft 504 kts 64°
2026-05-07 17:45 38.46740 0.04040 35968 ft 503 kts 64°
2026-05-07 17:46 38.49374 0.12296 35971 ft 502 kts 65°
2026-05-07 17:46 38.51983 0.20538 35973 ft 500 kts 65°
2026-05-07 17:47 38.54581 0.28702 35969 ft 499 kts 65°
2026-05-07 17:47 38.57184 0.36849 35968 ft 498 kts 65°
2026-05-07 17:48 38.59801 0.45046 35964 ft 498 kts 66°
2026-05-07 17:48 38.62406 0.53249 35963 ft 498 kts 66°
2026-05-07 17:49 38.64996 0.61467 35956 ft 498 kts 66°
2026-05-07 17:49 38.67573 0.69691 35953 ft 497 kts 67°
2026-05-07 17:50 38.70140 0.77899 35960 ft 496 kts 67°
2026-05-07 17:50 38.72720 0.86085 35957 ft 495 kts 67°
2026-05-07 17:51 38.75303 0.94234 35960 ft 495 kts 67°
2026-05-07 17:51 38.77910 1.02414 35955 ft 496 kts 67°
2026-05-07 17:52 38.80528 1.10575 35952 ft 497 kts 67°
2026-05-07 17:52 38.83167 1.18756 35954 ft 497 kts 67°
2026-05-07 17:53 38.85823 1.26940 35958 ft 498 kts 67°
2026-05-07 17:53 38.88471 1.35049 35954 ft 498 kts 67°
2026-05-07 17:54 38.91169 1.43261 35953 ft 498 kts 67°
2026-05-07 17:54 38.93875 1.51448 35949 ft 498 kts 67°
2026-05-07 17:55 38.96595 1.59629 35940 ft 497 kts 67°
2026-05-07 17:55 38.99325 1.67792 35943 ft 497 kts 67°
2026-05-07 17:56 39.02049 1.75960 35944 ft 496 kts 71°
2026-05-07 17:56 39.02848 1.80242 35945 ft 493 kts 83°
2026-05-07 17:56 39.03593 1.84540 35944 ft 494 kts 70°
2026-05-07 17:57 39.06208 1.91059 35945 ft 495 kts 56°
2026-05-07 17:57 39.10810 1.99554 35948 ft 495 kts 56°
2026-05-07 17:58 39.14438 2.07080 35945 ft 495 kts 61°
2026-05-07 17:58 39.17701 2.14908 35946 ft 495 kts 63°
2026-05-07 17:59 39.20914 2.22756 35557 ft 496 kts 63°
2026-05-07 17:59 39.22573 2.26706 34570 ft 505 kts 63°
2026-05-07 17:59 39.24269 2.30669 33587 ft 503 kts 62°
2026-05-07 18:00 39.25937 2.34522 32461 ft 497 kts 63°
2026-05-07 18:00 39.27616 2.38391 31441 ft 490 kts 63°
2026-05-07 18:00 39.29259 2.42195 30509 ft 481 kts 64°
2026-05-07 18:00 39.30642 2.45410 29719 ft 473 kts 64°
2026-05-07 18:01 39.32210 2.49080 29161 ft 456 kts 64°
2026-05-07 18:01 39.33696 2.52571 28929 ft 432 kts 65°
2026-05-07 18:01 39.35118 2.55919 28342 ft 421 kts 65°
2026-05-07 18:01 39.36510 2.59210 27611 ft 415 kts 65°
2026-05-07 18:02 39.39241 2.65677 26143 ft 406 kts 64°
2026-05-07 18:02 39.40587 2.68866 25419 ft 402 kts 64°
2026-05-07 18:02 39.41931 2.71954 25119 ft 386 kts 61°
2026-05-07 18:03 39.43276 2.74981 23983 ft 393 kts 64°
2026-05-07 18:03 39.44579 2.78145 22813 ft 401 kts 64°
2026-05-07 18:03 39.45870 2.81327 21925 ft 397 kts 64°
2026-05-07 18:03 39.47161 2.84434 21162 ft 389 kts 63°
2026-05-07 18:04 39.48482 2.87451 20415 ft 381 kts 62°
2026-05-07 18:04 39.49782 2.90396 19695 ft 372 kts 62°
2026-05-07 18:04 39.51020 2.93278 18987 ft 362 kts 68°
2026-05-07 18:04 39.51640 2.96363 18311 ft 348 kts 89°
2026-05-07 18:05 39.51340 2.99391 17542 ft 336 kts 111°
2026-05-07 18:05 39.50671 3.01169 16996 ft 330 kts 126°
2026-05-07 18:05 39.49067 3.03234 16186 ft 325 kts 148°
2026-05-07 18:05 39.46240 3.04382 15115 ft 321 kts 177°
2026-05-07 18:06 39.44761 3.04349 14559 ft 321 kts 181°
2026-05-07 18:06 39.42537 3.04176 13767 ft 319 kts 182°
2026-05-07 18:06 39.40329 3.03982 12915 ft 316 kts 182°
2026-05-07 18:06 39.38144 3.03782 12123 ft 314 kts 182°
2026-05-07 18:07 39.35977 3.03575 11401 ft 310 kts 182°
2026-05-07 18:07 39.33836 3.03365 10661 ft 308 kts 182°
2026-05-07 18:07 39.31709 3.03149 10222 ft 300 kts 182°
2026-05-07 18:07 39.29688 3.02865 10012 ft 287 kts 192°
2026-05-07 18:08 39.27834 3.01975 9531 ft 285 kts 201°
2026-05-07 18:08 39.26027 3.00915 8982 ft 284 kts 202°
2026-05-07 18:08 39.24236 2.99860 8505 ft 283 kts 202°
2026-05-07 18:08 39.22456 2.98810 8065 ft 280 kts 202°
2026-05-07 18:09 39.20692 2.97773 7654 ft 277 kts 202°
2026-05-07 18:09 39.18943 2.96753 7190 ft 275 kts 202°
2026-05-07 18:09 39.17209 2.95731 6757 ft 273 kts 202°
2026-05-07 18:09 39.15491 2.94714 6352 ft 271 kts 202°
2026-05-07 18:10 39.13781 2.93703 5950 ft 270 kts 202°
2026-05-07 18:10 39.12093 2.92700 5917 ft 268 kts 204°
2026-05-07 18:10 39.10378 2.91694 5923 ft 273 kts 203°
2026-05-07 18:10 39.08861 2.90241 5920 ft 276 kts 227°
2026-05-07 18:11 39.07670 2.88286 5934 ft 279 kts 231°
2026-05-07 18:11 39.06551 2.86294 5928 ft 277 kts 232°
2026-05-07 18:11 39.05406 2.84257 5924 ft 277 kts 232°
2026-05-07 18:11 39.04506 2.82118 5922 ft 279 kts 252°
2026-05-07 18:12 39.04169 2.79655 5920 ft 280 kts 261°
2026-05-07 18:12 39.03942 2.77163 5917 ft 281 kts 262°
2026-05-07 18:12 39.03721 2.74659 5921 ft 282 kts 262°
2026-05-07 18:12 39.03496 2.72162 5921 ft 282 kts 262°
2026-05-07 18:13 39.03270 2.69646 5918 ft 283 kts 262°
2026-05-07 18:13 39.03043 2.67128 5919 ft 283 kts 262°
2026-05-07 18:13 39.02811 2.64607 5924 ft 283 kts 262°
2026-05-07 18:13 39.02578 2.62090 5919 ft 284 kts 262°
2026-05-07 18:14 39.02345 2.59565 5920 ft 283 kts 263°
2026-05-07 18:14 39.02106 2.57053 5926 ft 283 kts 262°
2026-05-07 18:14 39.01868 2.54547 5929 ft 282 kts 262°
2026-05-07 18:14 39.01934 2.52030 5916 ft 283 kts 285°
2026-05-07 18:15 39.02847 2.49813 5925 ft 284 kts 313°
2026-05-07 18:15 39.04435 2.48363 5860 ft 279 kts 340°
2026-05-07 18:15 39.06315 2.47918 5575 ft 274 kts 360°
2026-05-07 18:15 39.08211 2.47870 5272 ft 272 kts
2026-05-07 18:16 39.10094 2.47863 5037 ft 268 kts
2026-05-07 18:16 39.11963 2.47854 5013 ft 269 kts
2026-05-07 18:16 39.13842 2.47843 5019 ft 270 kts
2026-05-07 18:16 39.15723 2.47823 5019 ft 270 kts
2026-05-07 18:17 39.17606 2.47806 5021 ft 269 kts
2026-05-07 18:17 39.19485 2.47785 5028 ft 270 kts
2026-05-07 18:17 39.21359 2.47777 5025 ft 270 kts
2026-05-07 18:17 39.23242 2.47762 5022 ft 270 kts
2026-05-07 18:18 39.25118 2.47747 5025 ft 269 kts
2026-05-07 18:18 39.26984 2.47755 5023 ft 268 kts
2026-05-07 18:18 39.28856 2.47761 5023 ft 269 kts
2026-05-07 18:18 39.30727 2.47767 5025 ft 269 kts
2026-05-07 18:19 39.32590 2.47776 5025 ft 267 kts
2026-05-07 18:19 39.34398 2.48181 5031 ft 263 kts 22°
2026-05-07 18:19 39.35874 2.49488 5029 ft 260 kts 51°
2026-05-07 18:19 39.36659 2.51554 5030 ft 259 kts 79°
2026-05-07 18:20 39.36576 2.53873 4864 ft 264 kts 106°
2026-05-07 18:20 39.35638 2.55896 4503 ft 265 kts 135°
2026-05-07 18:20 39.34060 2.57080 4145 ft 268 kts 163°
2026-05-07 18:20 39.32214 2.57257 3795 ft 272 kts 180°
2026-05-07 18:21 39.30299 2.57103 3443 ft 274 kts 182°
2026-05-07 18:21 39.28424 2.56920 3089 ft 274 kts 183°
2026-05-07 18:21 39.26528 2.56745 2735 ft 273 kts 182°
2026-05-07 18:21 39.24652 2.56570 2520 ft 265 kts 182°
2026-05-07 18:22 39.22830 2.56396 2525 ft 263 kts 182°
2026-05-07 18:22 39.21599 2.56266 2524 ft 262 kts 183°
2026-05-07 18:22 39.19206 2.56041 2519 ft 258 kts 182°
2026-05-07 18:22 39.17423 2.55852 2523 ft 257 kts 181°
2026-05-07 18:23 39.15648 2.55666 2517 ft 257 kts 182°
2026-05-07 18:23 39.13859 2.55487 2519 ft 258 kts 182°
2026-05-07 18:23 39.12073 2.55289 2521 ft 259 kts 182°
2026-05-07 18:23 39.10322 2.54710 2513 ft 264 kts 206°
2026-05-07 18:24 39.08961 2.53127 2519 ft 269 kts 236°
2026-05-07 18:24 39.08334 2.50865 2517 ft 272 kts 265°
2026-05-07 18:24 39.08608 2.48488 2516 ft 270 kts 295°
2026-05-07 18:24 39.09720 2.46575 2519 ft 268 kts 324°
2026-05-07 18:25 39.11373 2.45586 2519 ft 261 kts 351°
2026-05-07 18:25 39.13162 2.45259 2521 ft 259 kts 356°
2026-05-07 18:25 39.14960 2.45007 2524 ft 261 kts 357°
2026-05-07 18:25 39.16779 2.44762 2518 ft 263 kts 356°
2026-05-07 18:26 39.18595 2.44518 2520 ft 262 kts 356°
2026-05-07 18:26 39.20411 2.44286 2525 ft 263 kts 358°
2026-05-07 18:26 39.22221 2.44037 2527 ft 261 kts 357°
2026-05-07 18:26 39.24022 2.43787 2525 ft 262 kts 357°
2026-05-07 18:27 39.25835 2.43563 2531 ft 261 kts 357°
2026-05-07 18:27 39.27634 2.43365 2524 ft 260 kts 357°
2026-05-07 18:27 39.29445 2.43160 2527 ft 261 kts 358°
2026-05-07 18:27 39.31248 2.42951 2528 ft 261 kts 356°
2026-05-07 18:28 39.33041 2.42758 2531 ft 255 kts 357°
2026-05-07 18:28 39.34790 2.42875 2536 ft 250 kts 17°
2026-05-07 18:28 39.36450 2.43582 2544 ft 253 kts 21°
2026-05-07 18:28 39.38087 2.44376 2533 ft 252 kts 21°
2026-05-07 18:29 39.39723 2.45184 2542 ft 251 kts 22°
2026-05-07 18:29 39.41341 2.45972 2539 ft 252 kts 22°
2026-05-07 18:29 39.43014 2.46766 2533 ft 253 kts 21°
2026-05-07 18:29 39.44662 2.47523 2526 ft 249 kts 21°
2026-05-07 18:30 39.46297 2.48287 2527 ft 253 kts 22°
2026-05-07 18:30 39.47934 2.49074 2532 ft 256 kts 22°
2026-05-07 18:30 39.49595 2.49881 2531 ft 253 kts 24°
2026-05-07 18:30 39.50942 2.51134 2525 ft 229 kts 58°
2026-05-07 18:31 39.51306 2.53001 2530 ft 210 kts 97°
2026-05-07 18:31 39.50897 2.54766 2536 ft 200 kts 107°
2026-05-07 18:31 39.50443 2.56453 2539 ft 198 kts 107°
2026-05-07 18:31 39.50235 2.58195 2535 ft 195 kts 88°
2026-05-07 18:32 39.50271 2.59884 2552 ft 179 kts 87°
2026-05-07 18:32 39.50337 2.61407 2531 ft 161 kts 79°
2026-05-07 18:32 39.50728 2.62654 2531 ft 144 kts 58°
2026-05-07 18:32 39.51240 2.63721 2544 ft 134 kts 59°
2026-05-07 18:33 39.51720 2.64735 2533 ft 131 kts 59°
2026-05-07 18:33 39.52191 2.65731 2538 ft 129 kts 59°
2026-05-07 18:33 39.52655 2.66712 2537 ft 128 kts 58°
2026-05-07 18:33 39.53123 2.67701 2374 ft 130 kts 58°
2026-05-07 18:34 39.53600 2.68704 1761 ft 137 kts 59°
2026-05-07 18:34 39.54135 2.69839 675 ft 164 kts 56°
2026-05-07 18:34 39.54719 2.71106 91 ft 154 kts 58°
2026-05-07 18:34 39.55237 2.72175 38 ft 120 kts 58°
2026-05-07 18:35 39.55546 2.72827 38 ft 66 kts 59°
2026-05-07 18:35 39.55719 2.73221 38 ft 19 kts 90°
2026-05-07 18:35 39.55718 2.73372 38 ft 14 kts 88°
2026-05-07 18:35 39.55720 2.73472 38 ft 9 kts 89°
2026-05-07 18:36 39.55685 2.73529 38 ft 8 kts 175°
2026-05-07 18:36 39.55670 2.73522 38 ft 0 kts 207°
2026-05-07 18:36 39.55667 2.73518 38 ft 1 kts 213°
2026-05-07 18:36 39.55651 2.73506 38 ft 3 kts 208°
2026-05-07 18:37 39.55626 2.73501 38 ft 5 kts 173°
2026-05-07 18:37 39.55568 2.73541 38 ft 11 kts 148°
2026-05-07 18:37 39.55502 2.73594 38 ft 12 kts 148°
2026-05-07 18:37 39.55442 2.73641 38 ft 9 kts 148°
2026-05-07 18:38 39.55395 2.73678 38 ft 8 kts 148°
2026-05-07 18:38 39.55345 2.73718 38 ft 9 kts 149°
2026-05-07 18:38 39.55295 2.73757 38 ft 9 kts 149°
2026-05-07 18:38 39.55241 2.73799 38 ft 9 kts 149°
2026-05-07 18:39 39.55182 2.73811 38 ft 9 kts 215°
2026-05-07 18:39 39.55176 2.73735 38 ft 9 kts 291°
2026-05-07 18:39 39.55162 2.73654 36 ft 10 kts 244°
2026-05-07 18:39 39.55127 2.73575 38 ft 10 kts 236°
2026-05-07 18:40 39.55090 2.73502 38 ft 9 kts 237°
2026-05-07 18:40 39.55054 2.73429 38 ft 7 kts 239°
2026-05-07 18:40 39.55024 2.73379 38 ft 7 kts 195°
2026-05-07 18:40 39.54999 2.73386 38 ft 2 kts 166°
2026-05-07 18:41 39.54986 2.73391 37 ft 1 kts 165°
2026-05-07 18:41 39.54982 2.73392 37 ft 0 kts 165°